Time,TemperatureF,DewpointF,PressureIn,WindDirection,WindDirectionDegrees,WindSpeedMPH,WindSpeedGustMPH,Humidity,HourlyPrecipIn,Conditions,Clouds,dailyrainin,SoftwareType,DateUTC
2013-03-27 00:00:00,42.1,33.7,30.10,WNW,295,4.0,4.0,72,0.00,,,0.00,Wunderground v.1.15,2013-03-27 04:00:00,
2013-03-27 00:05:00,42.1,33.7,30.10,NW,316,4.0,9.0,72,0.00,,,0.00,Wunderground v.1.15,2013-03-27 04:05:00,
2013-03-27 00:10:00,42.0,33.6,30.10,NW,326,4.0,9.0,72,0.00,,,0.00,Wunderground v.1.15,2013-03-27 04:10:00,
2013-03-27 00:15:00,42.0,33.3,30.10,WNW,293,4.0,9.0,71,0.00,,,0.00,Wunderground v.1.15,2013-03-27 04:15:00,
2013-03-27 00:20:00,42.0,33.3,30.11,NW,319,4.0,4.0,71,0.00,,,0.00,Wunderground v.1.15,2013-03-27 04:20:00,
2013-03-27 00:25:00,42.0,33.3,30.11,West,278,4.0,9.0,71,0.00,,,0.00,Wunderground v.1.15,2013-03-27 04:25:00,
2013-03-27 00:30:00,42.0,33.3,30.11,NW,317,4.0,9.0,71,0.00,,,0.00,Wunderground v.1.15,2013-03-27 04:30:00,
2013-03-27 00:35:00,41.9,33.2,30.11,NNE,20,4.0,9.0,71,0.00,,,0.00,Wunderground v.1.15,2013-03-27 04:35:00,
2013-03-27 00:40:00,41.7,33.3,30.11,NW,317,4.0,4.0,72,0.00,,,0.00,Wunderground v.1.15,2013-03-27 04:40:00,
2013-03-27 00:50:00,41.4,33.0,30.11,NNW,327,4.0,9.0,72,0.00,,,0.00,Wunderground v.1.15,2013-03-27 04:50:00,
2013-03-27 00:55:00,41.3,33.0,30.11,WNW,284,4.0,9.0,72,0.00,,,0.00,Wunderground v.1.15,2013-03-27 04:55:00,
2013-03-27 01:00:00,41.2,32.9,30.11,North,4,4.0,9.0,72,0.00,,,0.00,Wunderground v.1.15,2013-03-27 05:00:00,
2013-03-27 01:05:00,41.1,32.8,30.12,NNW,327,4.0,9.0,72,0.00,,,0.00,Wunderground v.1.15,2013-03-27 05:05:00,
2013-03-27 01:10:00,41.1,32.8,30.12,NNW,333,5.0,5.0,72,0.00,,,0.00,Wunderground v.1.15,2013-03-27 05:10:00,
2013-03-27 01:15:00,41.1,33.1,30.12,NNW,340,5.0,9.0,73,0.00,,,0.00,Wunderground v.1.15,2013-03-27 05:15:00,
2013-03-27 01:20:00,41.1,32.8,30.12,WNW,297,5.0,5.0,72,0.00,,,0.00,Wunderground v.1.15,2013-03-27 05:20:00,
2013-03-27 01:25:00,41.0,32.7,30.12,NNW,347,5.0,9.0,72,0.00,,,0.00,Wunderground v.1.15,2013-03-27 05:25:00,
2013-03-27 01:30:00,40.9,32.6,30.12,NNW,339,5.0,5.0,72,0.00,,,0.00,Wunderground v.1.15,2013-03-27 05:30:00,
2013-03-27 01:35:00,40.8,32.8,30.12,North,356,5.0,9.0,73,0.00,,,0.00,Wunderground v.1.15,2013-03-27 05:35:00,
2013-03-27 01:45:00,40.7,32.4,30.12,NW,326,6.0,8.0,72,0.00,,,0.00,Wunderground v.1.15,2013-03-27 05:45:00,
2013-03-27 01:50:00,40.6,32.3,30.12,NNW,334,6.0,9.0,72,0.00,,,0.00,Wunderground v.1.15,2013-03-27 05:50:00,
2013-03-27 01:55:00,40.5,32.5,30.12,NW,311,6.0,9.0,73,0.00,,,0.00,Wunderground v.1.15,2013-03-27 05:55:00,
2013-03-27 02:00:00,40.5,32.2,30.12,NW,324,6.0,13.0,72,0.00,,,0.00,Wunderground v.1.15,2013-03-27 06:00:00,
2013-03-27 02:05:00,40.4,32.1,30.12,NW,307,6.0,13.0,72,0.00,,,0.00,Wunderground v.1.15,2013-03-27 06:05:00,
2013-03-27 02:10:00,40.2,32.2,30.12,North,357,6.0,13.0,73,0.00,,,0.00,Wunderground v.1.15,2013-03-27 06:10:00,
2013-03-27 02:20:00,39.9,31.9,30.11,NNW,346,4.0,4.0,73,0.00,,,0.00,Wunderground v.1.15,2013-03-27 06:20:00,
2013-03-27 02:25:00,39.7,32.1,30.12,NNW,337,4.0,13.0,74,0.00,,,0.00,Wunderground v.1.15,2013-03-27 06:25:00,
2013-03-27 02:30:00,39.5,32.2,30.11,NW,324,4.0,13.0,75,0.00,,,0.00,Wunderground v.1.15,2013-03-27 06:30:00,
2013-03-27 02:35:00,39.5,31.9,30.11,NW,317,4.0,13.0,74,0.00,,,0.00,Wunderground v.1.15,2013-03-27 06:35:00,
2013-03-27 02:40:00,39.5,31.9,30.11,NW,325,5.0,5.0,74,0.00,,,0.00,Wunderground v.1.15,2013-03-27 06:40:00,
2013-03-27 02:45:00,39.4,31.8,30.11,NW,314,6.0,6.0,74,0.00,,,0.00,Wunderground v.1.15,2013-03-27 06:45:00,
2013-03-27 02:50:00,39.3,31.7,30.11,North,356,6.0,6.0,74,0.00,,,0.00,Wunderground v.1.15,2013-03-27 06:50:00,
2013-03-27 02:55:00,39.1,31.5,30.11,North,358,6.0,13.0,74,0.00,,,0.00,Wunderground v.1.15,2013-03-27 06:55:00,
2013-03-27 03:00:00,39.0,31.4,30.11,NNW,333,6.0,6.0,74,0.00,,,0.00,Wunderground v.1.15,2013-03-27 07:00:00,
2013-03-27 03:05:00,38.8,31.6,30.11,NNE,33,6.0,11.0,75,0.00,,,0.00,Wunderground v.1.15,2013-03-27 07:05:00,
2013-03-27 03:10:00,38.5,31.6,30.11,NNW,339,5.0,5.0,76,0.00,,,0.00,Wunderground v.1.15,2013-03-27 07:10:00,
2013-03-27 03:15:00,38.3,31.4,30.11,NW,319,4.0,11.0,76,0.00,,,0.00,Wunderground v.1.15,2013-03-27 07:15:00,
2013-03-27 03:20:00,38.1,31.5,30.11,NNW,330,3.0,3.0,77,0.00,,,0.00,Wunderground v.1.15,2013-03-27 07:20:00,
2013-03-27 03:25:00,37.9,31.3,30.11,WNW,301,3.0,11.0,77,0.00,,,0.00,Wunderground v.1.15,2013-03-27 07:25:00,
2013-03-27 03:30:00,37.6,31.4,30.11,NNW,332,3.0,11.0,78,0.00,,,0.00,Wunderground v.1.15,2013-03-27 07:30:00,
2013-03-27 03:35:00,37.5,31.3,30.11,WNW,288,3.0,11.0,78,0.00,,,0.00,Wunderground v.1.15,2013-03-27 07:35:00,
2013-03-27 03:40:00,37.4,31.2,30.11,NW,324,4.0,4.0,78,0.00,,,0.00,Wunderground v.1.15,2013-03-27 07:40:00,
2013-03-27 03:45:00,37.4,31.2,30.11,WNW,287,4.0,11.0,78,0.00,,,0.00,Wunderground v.1.15,2013-03-27 07:45:00,
2013-03-27 03:50:00,37.4,31.2,30.11,NW,312,4.0,11.0,78,0.00,,,0.00,Wunderground v.1.15,2013-03-27 07:50:00,
2013-03-27 03:55:00,37.5,31.3,30.12,WNW,283,5.0,11.0,78,0.00,,,0.00,Wunderground v.1.15,2013-03-27 07:55:00,
2013-03-27 04:00:00,37.5,30.9,30.12,NW,305,5.0,5.0,77,0.00,,,0.00,Wunderground v.1.15,2013-03-27 08:00:00,
2013-03-27 04:05:00,37.4,30.8,30.12,WNW,288,4.0,9.0,77,0.00,,,0.00,Wunderground v.1.15,2013-03-27 08:05:00,
2013-03-27 04:10:00,37.2,30.7,30.12,North,3,4.0,4.0,77,0.00,,,0.00,Wunderground v.1.15,2013-03-27 08:10:00,
2013-03-27 04:15:00,37.1,30.9,30.12,NW,308,4.0,5.0,78,0.00,,,0.00,Wunderground v.1.15,2013-03-27 08:15:00,
2013-03-27 04:20:00,36.9,30.4,30.12,NNW,335,3.0,3.0,77,0.00,,,0.00,Wunderground v.1.15,2013-03-27 08:20:00,
2013-03-27 04:25:00,36.7,30.5,30.12,WNW,303,3.0,9.0,78,0.00,,,0.00,Wunderground v.1.15,2013-03-27 08:25:00,
2013-03-27 04:30:00,36.7,30.5,30.12,WNW,287,3.0,9.0,78,0.00,,,0.00,Wunderground v.1.15,2013-03-27 08:30:00,
2013-03-27 04:35:00,36.6,30.4,30.12,NNW,347,4.0,9.0,78,0.00,,,0.00,Wunderground v.1.15,2013-03-27 08:35:00,
2013-03-27 04:40:00,36.8,30.6,30.12,NNE,20,4.0,9.0,78,0.00,,,0.00,Wunderground v.1.15,2013-03-27 08:40:00,
2013-03-27 04:50:00,37.1,30.6,30.12,NNW,330,5.0,5.0,77,0.00,,,0.00,Wunderground v.1.15,2013-03-27 08:50:00,
2013-03-27 04:55:00,37.0,30.5,30.13,West,276,4.0,9.0,77,0.00,,,0.00,Wunderground v.1.15,2013-03-27 08:55:00,
2013-03-27 05:00:00,36.9,30.4,30.13,WNW,297,4.0,4.0,77,0.00,,,0.00,Wunderground v.1.15,2013-03-27 09:00:00,
2013-03-27 05:05:00,36.9,30.7,30.13,NW,315,4.0,5.0,78,0.00,,,0.00,Wunderground v.1.15,2013-03-27 09:05:00,
2013-03-27 05:10:00,36.8,30.6,30.13,North,4,4.0,9.0,78,0.00,,,0.00,Wunderground v.1.15,2013-03-27 09:10:00,
2013-03-27 05:15:00,36.7,30.5,30.13,North,359,4.0,9.0,78,0.00,,,0.00,Wunderground v.1.15,2013-03-27 09:15:00,
2013-03-27 05:20:00,36.7,30.2,30.13,NW,307,4.0,9.0,77,0.00,,,0.00,Wunderground v.1.15,2013-03-27 09:20:00,
2013-03-27 05:25:00,36.7,30.2,30.13,ENE,68,5.0,9.0,77,0.00,,,0.00,Wunderground v.1.15,2013-03-27 09:25:00,
2013-03-27 05:30:00,36.7,30.2,30.13,North,1,5.0,9.0,77,0.00,,,0.00,Wunderground v.1.15,2013-03-27 09:30:00,
2013-03-27 05:35:00,36.7,30.2,30.13,WNW,302,6.0,9.0,77,0.00,,,0.00,Wunderground v.1.15,2013-03-27 09:35:00,
2013-03-27 05:40:00,36.6,30.1,30.13,NW,323,6.0,6.0,77,0.00,,,0.00,Wunderground v.1.15,2013-03-27 09:40:00,
2013-03-27 05:45:00,36.5,30.0,30.14,NNW,340,6.0,7.0,77,0.00,,,0.00,Wunderground v.1.15,2013-03-27 09:45:00,
2013-03-27 05:50:00,36.4,29.9,30.13,NNE,23,6.0,6.0,77,0.00,,,0.00,Wunderground v.1.15,2013-03-27 09:50:00,
2013-03-27 05:55:00,36.4,30.2,30.14,NNW,330,5.0,9.0,78,0.00,,,0.00,Wunderground v.1.15,2013-03-27 09:55:00,
2013-03-27 06:00:00,36.3,30.1,30.14,NNW,328,4.0,11.0,78,0.00,,,0.00,Wunderground v.1.15,2013-03-27 10:00:00,
2013-03-27 06:05:00,36.1,29.9,30.14,NE,37,4.0,11.0,78,0.00,,,0.00,Wunderground v.1.15,2013-03-27 10:05:00,
2013-03-27 06:10:00,35.9,29.7,30.14,NNW,327,4.0,11.0,78,0.00,,,0.00,Wunderground v.1.15,2013-03-27 10:10:00,
2013-03-27 06:15:00,35.6,29.7,30.14,NNW,328,4.0,11.0,79,0.00,,,0.00,Wunderground v.1.15,2013-03-27 10:15:00,
2013-03-27 06:20:00,35.5,29.6,30.15,NNW,333,4.0,11.0,79,0.00,,,0.00,Wunderground v.1.15,2013-03-27 10:20:00,
2013-03-27 06:25:00,35.4,29.5,30.15,NW,324,4.0,11.0,79,0.00,,,0.00,Wunderground v.1.15,2013-03-27 10:25:00,
2013-03-27 06:30:00,35.4,29.8,30.15,WNW,287,4.0,4.0,80,0.00,,,0.00,Wunderground v.1.15,2013-03-27 10:30:00,
2013-03-27 06:35:00,35.3,29.4,30.15,NNW,329,5.0,7.0,79,0.00,,,0.00,Wunderground v.1.15,2013-03-27 10:35:00,
2013-03-27 06:40:00,35.3,29.7,30.15,WSW,257,5.0,11.0,80,0.00,,,0.00,Wunderground v.1.15,2013-03-27 10:40:00,
2013-03-27 06:45:00,35.3,29.7,30.15,NW,324,5.0,11.0,80,0.00,,,0.00,Wunderground v.1.15,2013-03-27 10:45:00,
2013-03-27 06:50:00,35.1,29.6,30.15,WNW,302,5.0,5.0,80,0.00,,,0.00,Wunderground v.1.15,2013-03-27 10:50:00,
2013-03-27 06:55:00,35.1,29.6,30.16,NW,304,5.0,8.0,80,0.00,,,0.00,Wunderground v.1.15,2013-03-27 10:55:00,
2013-03-27 07:00:00,35.1,29.6,30.16,NNW,328,5.0,10.0,80,0.00,,,0.00,Wunderground v.1.15,2013-03-27 11:00:00,
2013-03-27 07:05:00,35.1,29.6,30.16,NNW,333,6.0,10.0,80,0.00,,,0.00,Wunderground v.1.15,2013-03-27 11:05:00,
2013-03-27 07:10:00,35.1,29.6,30.16,North,9,6.0,10.0,80,0.00,,,0.00,Wunderground v.1.15,2013-03-27 11:10:00,
2013-03-27 07:15:00,35.0,29.5,30.16,NW,325,6.0,10.0,80,0.00,,,0.00,Wunderground v.1.15,2013-03-27 11:15:00,
2013-03-27 07:20:00,35.0,29.5,30.16,WNW,302,6.0,10.0,80,0.00,,,0.00,Wunderground v.1.15,2013-03-27 11:20:00,
2013-03-27 07:25:00,35.1,29.6,30.16,NW,304,6.0,10.0,80,0.00,,,0.00,Wunderground v.1.15,2013-03-27 11:25:00,
2013-03-27 07:30:00,35.2,29.6,30.17,NNE,15,7.0,7.0,80,0.00,,,0.00,Wunderground v.1.15,2013-03-27 11:30:00,
2013-03-27 07:35:00,35.3,29.7,30.17,NNW,335,6.0,10.0,80,0.00,,,0.00,Wunderground v.1.15,2013-03-27 11:35:00,
2013-03-27 07:40:00,35.4,29.5,30.17,NNW,342,6.0,6.0,79,0.00,,,0.00,Wunderground v.1.15,2013-03-27 11:40:00,
2013-03-27 07:45:00,35.6,29.7,30.17,NW,316,7.0,10.0,79,0.00,,,0.00,Wunderground v.1.15,2013-03-27 11:45:00,
2013-03-27 07:50:00,35.8,29.9,30.18,NW,311,7.0,10.0,79,0.00,,,0.00,Wunderground v.1.15,2013-03-27 11:50:00,
2013-03-27 07:55:00,36.1,29.9,30.18,NNW,327,7.0,10.0,78,0.00,,,0.00,Wunderground v.1.15,2013-03-27 11:55:00,
2013-03-27 08:00:00,36.4,30.2,30.18,NNW,344,7.0,14.0,78,0.00,,,0.00,Wunderground v.1.15,2013-03-27 12:00:00,
2013-03-27 08:10:00,36.9,30.4,30.18,NNW,334,7.0,14.0,77,0.00,,,0.00,Wunderground v.1.15,2013-03-27 12:10:00,
2013-03-27 08:15:00,37.1,30.6,30.19,West,267,7.0,14.0,77,0.00,,,0.00,Wunderground v.1.15,2013-03-27 12:15:00,
2013-03-27 08:20:00,37.4,30.5,30.19,NW,323,7.0,14.0,76,0.00,,,0.00,Wunderground v.1.15,2013-03-27 12:20:00,
2013-03-27 08:25:00,37.7,30.5,30.19,NNW,339,7.0,14.0,75,0.00,,,0.00,Wunderground v.1.15,2013-03-27 12:25:00,
2013-03-27 08:35:00,37.9,30.0,30.19,NNW,346,9.0,14.0,73,0.00,,,0.00,Wunderground v.1.15,2013-03-27 12:35:00,
2013-03-27 08:40:00,38.3,30.7,30.19,North,11,8.0,15.0,74,0.00,,,0.00,Wunderground v.1.15,2013-03-27 12:40:00,
2013-03-27 08:45:00,38.4,30.5,30.19,WNW,297,9.0,15.0,73,0.00,,,0.00,Wunderground v.1.15,2013-03-27 12:45:00,
2013-03-27 08:50:00,38.8,30.9,30.19,NNW,330,10.0,14.0,73,0.00,,,0.00,Wunderground v.1.15,2013-03-27 12:50:00,
2013-03-27 08:55:00,39.4,31.5,30.19,NNW,338,8.0,14.0,73,0.00,,,0.00,Wunderground v.1.15,2013-03-27 12:55:00,
2013-03-27 09:00:00,39.9,31.6,30.19,NW,317,8.0,16.0,72,0.00,,,0.00,Wunderground v.1.15,2013-03-27 13:00:00,
2013-03-27 09:10:00,40.6,31.9,30.20,NNW,335,10.0,10.0,71,0.00,,,0.00,Wunderground v.1.15,2013-03-27 13:10:00,
2013-03-27 09:15:00,40.9,31.1,30.19,NNW,335,9.0,16.0,68,0.00,,,0.00,Wunderground v.1.15,2013-03-27 13:15:00,
2013-03-27 09:20:00,41.3,31.2,30.20,NNW,327,9.0,16.0,67,0.00,,,0.00,Wunderground v.1.15,2013-03-27 13:20:00,
2013-03-27 09:25:00,41.5,30.6,30.20,NW,323,11.0,16.0,65,0.00,,,0.00,Wunderground v.1.15,2013-03-27 13:25:00,
2013-03-27 09:30:00,41.9,31.0,30.20,NW,323,12.0,12.0,65,0.00,,,0.00,Wunderground v.1.15,2013-03-27 13:30:00,
2013-03-27 09:35:00,42.3,31.7,30.20,North,354,11.0,16.0,66,0.00,,,0.00,Wunderground v.1.15,2013-03-27 13:35:00,
2013-03-27 09:40:00,42.7,31.0,30.20,NNW,337,9.0,16.0,63,0.00,,,0.00,Wunderground v.1.15,2013-03-27 13:40:00,
2013-03-27 09:45:00,43.0,30.9,30.20,NW,325,10.0,16.0,62,0.00,,,0.00,Wunderground v.1.15,2013-03-27 13:45:00,
2013-03-27 09:50:00,43.2,30.2,30.20,North,352,11.0,11.0,60,0.00,,,0.00,Wunderground v.1.15,2013-03-27 13:50:00,
2013-03-27 09:55:00,43.6,31.0,30.20,NNW,337,11.0,13.0,61,0.00,,,0.00,Wunderground v.1.15,2013-03-27 13:55:00,
2013-03-27 10:00:00,43.8,30.8,30.20,NW,322,10.0,10.0,60,0.00,,,0.00,Wunderground v.1.15,2013-03-27 14:00:00,
2013-03-27 10:05:00,44.5,31.5,30.20,NNW,346,9.0,21.0,60,0.00,,,0.00,Wunderground v.1.15,2013-03-27 14:05:00,
2013-03-27 10:10:00,44.7,30.8,30.20,NW,314,9.0,21.0,58,0.00,,,0.00,Wunderground v.1.15,2013-03-27 14:10:00,
2013-03-27 10:15:00,45.2,31.7,30.20,WNW,288,9.0,21.0,59,0.00,,,0.00,Wunderground v.1.15,2013-03-27 14:15:00,
2013-03-27 10:20:00,45.3,31.0,30.20,North,1,8.0,8.0,57,0.00,,,0.00,Wunderground v.1.15,2013-03-27 14:20:00,
2013-03-27 10:25:00,45.8,31.0,30.20,North,1,9.0,13.0,56,0.00,,,0.00,Wunderground v.1.15,2013-03-27 14:25:00,
2013-03-27 10:30:00,45.6,30.8,30.20,NNW,343,9.0,21.0,56,0.00,,,0.00,Wunderground v.1.15,2013-03-27 14:30:00,
2013-03-27 10:35:00,45.7,30.9,30.20,NNE,17,10.0,21.0,56,0.00,,,0.00,Wunderground v.1.15,2013-03-27 14:35:00,
2013-03-27 10:40:00,46.2,31.4,30.20,NW,313,10.0,10.0,56,0.00,,,0.00,Wunderground v.1.15,2013-03-27 14:40:00,
2013-03-27 10:45:00,46.5,31.2,30.19,NW,321,8.0,21.0,55,0.00,,,0.00,Wunderground v.1.15,2013-03-27 14:45:00,
2013-03-27 10:50:00,46.8,31.0,30.20,NNE,30,8.0,21.0,54,0.00,,,0.00,Wunderground v.1.15,2013-03-27 14:50:00,
2013-03-27 10:55:00,46.7,30.9,30.20,North,7,9.0,21.0,54,0.00,,,0.00,Wunderground v.1.15,2013-03-27 14:55:00,
2013-03-27 11:00:00,46.8,29.6,30.19,North,359,10.0,20.0,51,0.00,,,0.00,Wunderground v.1.15,2013-03-27 15:00:00,
2013-03-27 11:05:00,47.2,30.9,30.19,NNW,335,9.0,20.0,53,0.00,,,0.00,Wunderground v.1.15,2013-03-27 15:05:00,
2013-03-27 11:10:00,47.8,31.0,30.19,WSW,240,9.0,9.0,52,0.00,,,0.00,Wunderground v.1.15,2013-03-27 15:10:00,
2013-03-27 11:20:00,47.9,29.6,30.19,NNW,330,10.0,20.0,49,0.00,,,0.00,Wunderground v.1.15,2013-03-27 15:20:00,
2013-03-27 11:30:00,48.3,29.0,30.19,NNW,335,8.0,20.0,47,0.00,,,0.00,Wunderground v.1.15,2013-03-27 15:30:00,
2013-03-27 11:35:00,48.5,29.2,30.18,NW,325,8.0,20.0,47,0.00,,,0.00,Wunderground v.1.15,2013-03-27 15:35:00,
2013-03-27 11:40:00,48.9,29.0,30.18,NNW,330,8.0,8.0,46,0.00,,,0.00,Wunderground v.1.15,2013-03-27 15:40:00,
2013-03-27 11:45:00,49.5,30.6,30.18,NNE,15,7.0,12.0,48,0.00,,,0.00,Wunderground v.1.15,2013-03-27 15:45:00,
2013-03-27 11:50:00,49.3,28.8,30.18,North,351,7.0,7.0,45,0.00,,,0.00,Wunderground v.1.15,2013-03-27 15:50:00,
2013-03-27 11:55:00,49.9,29.4,30.18,NW,321,7.0,10.0,45,0.00,,,0.00,Wunderground v.1.15,2013-03-27 15:55:00,
2013-03-27 12:00:00,50.0,29.5,30.18,NW,307,7.0,7.0,45,0.00,,,0.00,Wunderground v.1.15,2013-03-27 16:00:00,
2013-03-27 12:05:00,49.7,27.5,30.18,NW,325,7.0,9.0,42,0.00,,,0.00,Wunderground v.1.15,2013-03-27 16:05:00,
2013-03-27 12:10:00,49.6,28.0,30.18,NW,319,9.0,9.0,43,0.00,,,0.00,Wunderground v.1.15,2013-03-27 16:10:00,
2013-03-27 12:15:00,49.7,28.6,30.18,NW,309,9.0,17.0,44,0.00,,,0.00,Wunderground v.1.15,2013-03-27 16:15:00,
2013-03-27 12:20:00,50.6,30.0,30.18,North,358,6.0,17.0,45,0.00,,,0.00,Wunderground v.1.15,2013-03-27 16:20:00,
2013-03-27 12:25:00,50.6,30.6,30.18,NE,41,6.0,17.0,46,0.00,,,0.00,Wunderground v.1.15,2013-03-27 16:25:00,
2013-03-27 12:30:00,50.4,28.1,30.18,NNW,327,8.0,17.0,42,0.00,,,0.00,Wunderground v.1.15,2013-03-27 16:30:00,
2013-03-27 12:35:00,50.5,27.7,30.18,NNW,333,10.0,17.0,41,0.00,,,0.00,Wunderground v.1.15,2013-03-27 16:35:00,
2013-03-27 12:40:00,50.3,28.1,30.17,NW,318,9.0,17.0,42,0.00,,,0.00,Wunderground v.1.15,2013-03-27 16:40:00,
2013-03-27 12:45:00,50.6,27.1,30.17,NNW,347,8.0,17.0,40,0.00,,,0.00,Wunderground v.1.15,2013-03-27 16:45:00,
2013-03-27 12:50:00,51.0,28.7,30.17,West,269,8.0,17.0,42,0.00,,,0.00,Wunderground v.1.15,2013-03-27 16:50:00,
2013-03-27 12:55:00,51.4,27.9,30.17,NNW,336,7.0,17.0,40,0.00,,,0.00,Wunderground v.1.15,2013-03-27 16:55:00,
2013-03-27 13:00:00,51.0,26.9,30.17,NW,308,7.0,7.0,39,0.00,,,0.00,Wunderground v.1.15,2013-03-27 17:00:00,
2013-03-27 13:05:00,51.2,28.9,30.17,NNW,328,9.0,15.0,42,0.00,,,0.00,Wunderground v.1.15,2013-03-27 17:05:00,
2013-03-27 13:10:00,51.0,27.5,30.17,NW,323,10.0,10.0,40,0.00,,,0.00,Wunderground v.1.15,2013-03-27 17:10:00,
2013-03-27 13:15:00,51.8,29.4,30.17,North,1,9.0,20.0,42,0.00,,,0.00,Wunderground v.1.15,2013-03-27 17:15:00,
2013-03-27 13:20:00,51.8,28.2,30.17,North,351,9.0,9.0,40,0.00,,,0.00,Wunderground v.1.15,2013-03-27 17:20:00,
2013-03-27 13:25:00,51.8,28.2,30.17,NNE,27,9.0,20.0,40,0.00,,,0.00,Wunderground v.1.15,2013-03-27 17:25:00,
2013-03-27 13:30:00,52.0,29.6,30.17,NW,309,10.0,20.0,42,0.00,,,0.00,Wunderground v.1.15,2013-03-27 17:30:00,
2013-03-27 13:35:00,52.0,28.4,30.17,NNE,16,9.0,20.0,40,0.00,,,0.00,Wunderground v.1.15,2013-03-27 17:35:00,
2013-03-27 13:40:00,52.4,28.1,30.16,NNW,327,9.0,20.0,39,0.00,,,0.00,Wunderground v.1.15,2013-03-27 17:40:00,
2013-03-27 13:45:00,52.3,28.7,30.16,WNW,297,9.0,20.0,40,0.00,,,0.00,Wunderground v.1.15,2013-03-27 17:45:00,
2013-03-27 13:50:00,52.7,29.0,30.16,NNW,331,9.0,9.0,40,0.00,,,0.00,Wunderground v.1.15,2013-03-27 17:50:00,
2013-03-27 14:00:00,53.0,29.3,30.16,West,276,9.0,9.0,40,0.00,,,0.00,Wunderground v.1.15,2013-03-27 18:00:00,
2013-03-27 14:05:00,52.9,29.2,30.15,NNE,33,9.0,12.0,40,0.00,,,0.00,Wunderground v.1.15,2013-03-27 18:05:00,
2013-03-27 14:10:00,53.0,28.0,30.15,NNW,335,9.0,9.0,38,0.00,,,0.00,Wunderground v.1.15,2013-03-27 18:10:00,
2013-03-27 14:15:00,53.4,28.4,30.15,NNW,339,9.0,25.0,38,0.00,,,0.00,Wunderground v.1.15,2013-03-27 18:15:00,
2013-03-27 14:20:00,53.3,28.3,30.15,WNW,298,9.0,9.0,38,0.00,,,0.00,Wunderground v.1.15,2013-03-27 18:20:00,
2013-03-27 14:25:00,53.6,30.4,30.14,NNW,335,9.0,25.0,41,0.00,,,0.00,Wunderground v.1.15,2013-03-27 18:25:00,
2013-03-27 14:30:00,53.3,28.9,30.14,North,357,10.0,10.0,39,0.00,,,0.00,Wunderground v.1.15,2013-03-27 18:30:00,
2013-03-27 14:35:00,53.6,29.2,30.14,NNE,27,9.0,25.0,39,0.00,,,0.00,Wunderground v.1.15,2013-03-27 18:35:00,
2013-03-27 14:40:00,53.8,28.1,30.14,NW,326,8.0,8.0,37,0.00,,,0.00,Wunderground v.1.15,2013-03-27 18:40:00,
2013-03-27 14:45:00,53.7,28.7,30.13,WNW,297,8.0,11.0,38,0.00,,,0.00,Wunderground v.1.15,2013-03-27 18:45:00,
2013-03-27 14:50:00,54.1,29.0,30.13,WNW,294,7.0,25.0,38,0.00,,,0.00,Wunderground v.1.15,2013-03-27 18:50:00,
2013-03-27 14:55:00,54.1,29.7,30.13,North,11,8.0,25.0,39,0.00,,,0.00,Wunderground v.1.15,2013-03-27 18:55:00,
2013-03-27 15:00:00,54.3,29.2,30.13,WNW,295,7.0,19.0,38,0.00,,,0.00,Wunderground v.1.15,2013-03-27 19:00:00,
2013-03-27 15:05:00,54.3,28.6,30.12,WNW,294,8.0,20.0,37,0.00,,,0.00,Wunderground v.1.15,2013-03-27 19:05:00,
2013-03-27 15:10:00,54.4,28.0,30.13,NW,305,9.0,19.0,36,0.00,,,0.00,Wunderground v.1.15,2013-03-27 19:10:00,
2013-03-27 15:15:00,54.4,28.6,30.12,NW,311,9.0,19.0,37,0.00,,,0.00,Wunderground v.1.15,2013-03-27 19:15:00,
2013-03-27 15:20:00,55.0,29.8,30.12,NW,312,8.0,19.0,38,0.00,,,0.00,Wunderground v.1.15,2013-03-27 19:20:00,
2013-03-27 15:25:00,54.7,28.2,30.12,NW,308,8.0,19.0,36,0.00,,,0.00,Wunderground v.1.15,2013-03-27 19:25:00,
2013-03-27 15:30:00,54.9,27.7,30.12,NW,322,8.0,8.0,35,0.00,,,0.00,Wunderground v.1.15,2013-03-27 19:30:00,
2013-03-27 15:35:00,54.8,29.0,30.12,NW,319,9.0,13.0,37,0.00,,,0.00,Wunderground v.1.15,2013-03-27 19:35:00,
2013-03-27 15:40:00,55.1,27.9,30.12,NW,319,9.0,19.0,35,0.00,,,0.00,Wunderground v.1.15,2013-03-27 19:40:00,
2013-03-27 15:45:00,55.2,27.3,30.12,WNW,301,7.0,19.0,34,0.00,,,0.00,Wunderground v.1.15,2013-03-27 19:45:00,
2013-03-27 15:50:00,55.4,28.9,30.12,NW,325,7.0,19.0,36,0.00,,,0.00,Wunderground v.1.15,2013-03-27 19:50:00,
2013-03-27 15:55:00,55.2,26.6,30.11,NW,315,8.0,19.0,33,0.00,,,0.00,Wunderground v.1.15,2013-03-27 19:55:00,
2013-03-27 16:00:00,55.3,28.1,30.12,NW,321,8.0,8.0,35,0.00,,,0.00,Wunderground v.1.15,2013-03-27 20:00:00,
2013-03-27 16:05:00,54.8,26.2,30.12,NW,319,10.0,10.0,33,0.00,,,0.00,Wunderground v.1.15,2013-03-27 20:05:00,
2013-03-27 16:10:00,55.1,27.9,30.12,WNW,302,9.0,9.0,35,0.00,,,0.00,Wunderground v.1.15,2013-03-27 20:10:00,
2013-03-27 16:15:00,55.1,27.2,30.12,NW,325,8.0,15.0,34,0.00,,,0.00,Wunderground v.1.15,2013-03-27 20:15:00,
2013-03-27 16:20:00,55.0,29.2,30.12,North,354,11.0,11.0,37,0.00,,,0.00,Wunderground v.1.15,2013-03-27 20:20:00,
2013-03-27 16:25:00,54.8,27.6,30.12,NW,304,11.0,22.0,35,0.00,,,0.00,Wunderground v.1.15,2013-03-27 20:25:00,
2013-03-27 16:30:00,54.8,26.9,30.12,NW,326,9.0,9.0,34,0.00,,,0.00,Wunderground v.1.15,2013-03-27 20:30:00,
2013-03-27 16:35:00,54.7,28.2,30.12,NNW,343,8.0,10.0,36,0.00,,,0.00,Wunderground v.1.15,2013-03-27 20:35:00,
2013-03-27 16:40:00,54.9,28.4,30.12,NNW,341,10.0,22.0,36,0.00,,,0.00,Wunderground v.1.15,2013-03-27 20:40:00,
2013-03-27 16:45:00,54.7,28.2,30.12,NE,49,10.0,22.0,36,0.00,,,0.00,Wunderground v.1.15,2013-03-27 20:45:00,
2013-03-27 16:50:00,54.9,27.7,30.12,NW,311,8.0,8.0,35,0.00,,,0.00,Wunderground v.1.15,2013-03-27 20:50:00,
2013-03-27 16:55:00,55.4,28.9,30.12,North,356,7.0,22.0,36,0.00,,,0.00,Wunderground v.1.15,2013-03-27 20:55:00,
2013-03-27 17:00:00,55.5,30.3,30.12,West,264,9.0,9.0,38,0.00,,,0.00,Wunderground v.1.15,2013-03-27 21:00:00,
2013-03-27 17:05:00,55.4,28.2,30.12,North,349,8.0,20.0,35,0.00,,,0.00,Wunderground v.1.15,2013-03-27 21:05:00,
2013-03-27 17:10:00,55.2,28.7,30.12,NW,313,8.0,8.0,36,0.00,,,0.00,Wunderground v.1.15,2013-03-27 21:10:00,
2013-03-27 17:15:00,55.2,29.4,30.13,NW,311,8.0,11.0,37,0.00,,,0.00,Wunderground v.1.15,2013-03-27 21:15:00,
2013-03-27 17:20:00,55.3,31.4,30.13,NW,311,8.0,8.0,40,0.00,,,0.00,Wunderground v.1.15,2013-03-27 21:20:00,
2013-03-27 17:25:00,55.3,28.8,30.13,WNW,294,7.0,12.0,36,0.00,,,0.00,Wunderground v.1.15,2013-03-27 21:25:00,
2013-03-27 17:30:00,55.1,27.2,30.12,NNW,330,7.0,7.0,34,0.00,,,0.00,Wunderground v.1.15,2013-03-27 21:30:00,
2013-03-27 17:35:00,55.2,28.0,30.13,NNW,333,8.0,8.0,35,0.00,,,0.00,Wunderground v.1.15,2013-03-27 21:35:00,
2013-03-27 17:40:00,55.0,29.2,30.13,WNW,290,9.0,9.0,37,0.00,,,0.00,Wunderground v.1.15,2013-03-27 21:40:00,
2013-03-27 17:45:00,55.0,27.8,30.13,North,1,8.0,20.0,35,0.00,,,0.00,Wunderground v.1.15,2013-03-27 21:45:00,
2013-03-27 17:50:00,54.9,28.4,30.13,NNW,340,8.0,20.0,36,0.00,,,0.00,Wunderground v.1.15,2013-03-27 21:50:00,
2013-03-27 17:55:00,55.1,28.6,30.13,WNW,291,8.0,20.0,36,0.00,,,0.00,Wunderground v.1.15,2013-03-27 21:55:00,
2013-03-27 18:00:00,55.0,28.5,30.13,NW,314,7.0,7.0,36,0.00,,,0.00,Wunderground v.1.15,2013-03-27 22:00:00,
2013-03-27 18:10:00,54.6,28.2,30.13,NW,321,8.0,25.0,36,0.00,,,0.00,Wunderground v.1.15,2013-03-27 22:10:00,
2013-03-27 18:15:00,54.5,28.1,30.13,NNW,340,9.0,25.0,36,0.00,,,0.00,Wunderground v.1.15,2013-03-27 22:15:00,
2013-03-27 18:20:00,54.5,28.7,30.13,NE,34,9.0,9.0,37,0.00,,,0.00,Wunderground v.1.15,2013-03-27 22:20:00,
2013-03-27 18:25:00,54.3,27.2,30.13,NW,317,9.0,25.0,35,0.00,,,0.00,Wunderground v.1.15,2013-03-27 22:25:00,
2013-03-27 18:30:00,54.3,27.9,30.13,NNW,333,8.0,8.0,36,0.00,,,0.00,Wunderground v.1.15,2013-03-27 22:30:00,
2013-03-27 18:35:00,54.2,27.8,30.13,North,9,7.0,25.0,36,0.00,,,0.00,Wunderground v.1.15,2013-03-27 22:35:00,
2013-03-27 18:40:00,54.2,27.8,30.13,NNW,330,7.0,25.0,36,0.00,,,0.00,Wunderground v.1.15,2013-03-27 22:40:00,
2013-03-27 18:50:00,54.0,28.3,30.13,NW,326,7.0,25.0,37,0.00,,,0.00,Wunderground v.1.15,2013-03-27 22:50:00,
2013-03-27 18:55:00,53.8,28.1,30.14,NNW,340,7.0,25.0,37,0.00,,,0.00,Wunderground v.1.15,2013-03-27 22:55:00,
2013-03-27 19:00:00,53.5,29.1,30.14,WNW,285,7.0,7.0,39,0.00,,,0.00,Wunderground v.1.15,2013-03-27 23:00:00,
2013-03-27 19:10:00,52.8,28.5,30.14,NNW,341,7.0,16.0,39,0.00,,,0.00,Wunderground v.1.15,2013-03-27 23:10:00,
2013-03-27 19:15:00,52.4,29.4,30.14,NNW,331,7.0,16.0,41,0.00,,,0.00,Wunderground v.1.15,2013-03-27 23:15:00,
2013-03-27 19:20:00,51.9,28.9,30.14,NNW,336,7.0,7.0,41,0.00,,,0.00,Wunderground v.1.15,2013-03-27 23:20:00,
2013-03-27 19:25:00,51.4,29.1,30.15,NNW,339,7.0,16.0,42,0.00,,,0.00,Wunderground v.1.15,2013-03-27 23:25:00,
2013-03-27 19:30:00,51.0,28.7,30.15,NNW,327,6.0,16.0,42,0.00,,,0.00,Wunderground v.1.15,2013-03-27 23:30:00,
2013-03-27 19:35:00,50.7,29.0,30.15,NW,309,6.0,16.0,43,0.00,,,0.00,Wunderground v.1.15,2013-03-27 23:35:00,
2013-03-27 19:40:00,50.4,28.1,30.15,NW,317,6.0,6.0,42,0.00,,,0.00,Wunderground v.1.15,2013-03-27 23:40:00,
2013-03-27 19:45:00,50.3,28.6,30.15,NW,314,6.0,16.0,43,0.00,,,0.00,Wunderground v.1.15,2013-03-27 23:45:00,
2013-03-27 19:55:00,49.7,28.6,30.15,NNW,337,5.0,16.0,44,0.00,,,0.00,Wunderground v.1.15,2013-03-27 23:55:00,
2013-03-27 20:00:00,49.4,28.4,30.15,NNW,327,5.0,14.0,44,0.00,,,0.00,Wunderground v.1.15,2013-03-28 00:00:00,
2013-03-27 20:10:00,48.7,29.4,30.16,NNW,333,4.0,14.0,47,0.00,,,0.00,Wunderground v.1.15,2013-03-28 00:10:00,
2013-03-27 20:15:00,48.4,29.1,30.16,NW,325,5.0,14.0,47,0.00,,,0.00,Wunderground v.1.15,2013-03-28 00:15:00,
2013-03-27 20:25:00,48.2,28.9,30.16,NNW,329,5.0,14.0,47,0.00,,,0.00,Wunderground v.1.15,2013-03-28 00:25:00,
2013-03-27 20:30:00,47.9,29.6,30.16,NNW,330,5.0,14.0,49,0.00,,,0.00,Wunderground v.1.15,2013-03-28 00:30:00,
2013-03-27 20:35:00,47.7,28.9,30.17,NNW,337,5.0,14.0,48,0.00,,,0.00,Wunderground v.1.15,2013-03-28 00:35:00,
2013-03-27 20:40:00,47.6,29.4,30.17,NW,321,5.0,14.0,49,0.00,,,0.00,Wunderground v.1.15,2013-03-28 00:40:00,
2013-03-27 20:45:00,47.3,29.1,30.17,NW,319,5.0,14.0,49,0.00,,,0.00,Wunderground v.1.15,2013-03-28 00:45:00,
2013-03-27 20:50:00,47.0,29.8,30.17,NW,323,5.0,14.0,51,0.00,,,0.00,Wunderground v.1.15,2013-03-28 00:50:00,
2013-03-27 20:55:00,46.7,30.0,30.17,North,358,5.0,14.0,52,0.00,,,0.00,Wunderground v.1.15,2013-03-28 00:55:00,
2013-03-27 21:00:00,46.5,29.8,30.17,NW,321,5.0,8.0,52,0.00,,,0.00,Wunderground v.1.15,2013-03-28 01:00:00,
2013-03-27 21:05:00,46.5,29.3,30.17,NW,322,5.0,8.0,51,0.00,,,0.00,Wunderground v.1.15,2013-03-28 01:05:00,
2013-03-27 21:10:00,46.3,29.6,30.17,NW,324,5.0,8.0,52,0.00,,,0.00,Wunderground v.1.15,2013-03-28 01:10:00,
2013-03-27 21:15:00,46.2,29.1,30.18,NNW,338,6.0,8.0,51,0.00,,,0.00,Wunderground v.1.15,2013-03-28 01:15:00,
2013-03-27 21:20:00,46.0,29.3,30.18,NNE,20,6.0,6.0,52,0.00,,,0.00,Wunderground v.1.15,2013-03-28 01:20:00,
2013-03-27 21:25:00,45.9,28.8,30.18,NW,317,6.0,8.0,51,0.00,,,0.00,Wunderground v.1.15,2013-03-28 01:25:00,
2013-03-27 21:30:00,45.8,28.7,30.18,NW,326,6.0,8.0,51,0.00,,,0.00,Wunderground v.1.15,2013-03-28 01:30:00,
2013-03-27 21:35:00,45.7,28.6,30.18,NW,319,6.0,8.0,51,0.00,,,0.00,Wunderground v.1.15,2013-03-28 01:35:00,
2013-03-27 21:40:00,45.6,29.0,30.18,NW,317,6.0,8.0,52,0.00,,,0.00,Wunderground v.1.15,2013-03-28 01:40:00,
2013-03-27 21:45:00,45.6,28.5,30.18,NNW,346,7.0,8.0,51,0.00,,,0.00,Wunderground v.1.15,2013-03-28 01:45:00,
2013-03-27 21:50:00,45.5,28.9,30.18,NNW,330,7.0,8.0,52,0.00,,,0.00,Wunderground v.1.15,2013-03-28 01:50:00,
2013-03-27 22:00:00,45.3,28.2,30.19,NNW,340,7.0,11.0,51,0.00,,,0.00,Wunderground v.1.15,2013-03-28 02:00:00,
2013-03-27 22:05:00,45.5,27.9,30.19,NW,317,8.0,11.0,50,0.00,,,0.00,Wunderground v.1.15,2013-03-28 02:05:00,
2013-03-27 22:10:00,45.5,28.4,30.19,NW,308,8.0,11.0,51,0.00,,,0.00,Wunderground v.1.15,2013-03-28 02:10:00,
2013-03-27 22:15:00,45.5,28.4,30.19,North,356,8.0,11.0,51,0.00,,,0.00,Wunderground v.1.15,2013-03-28 02:15:00,
2013-03-27 22:20:00,45.5,28.4,30.19,North,5,8.0,11.0,51,0.00,,,0.00,Wunderground v.1.15,2013-03-28 02:20:00,
2013-03-27 22:25:00,45.6,27.5,30.19,NNW,340,7.0,11.0,49,0.00,,,0.00,Wunderground v.1.15,2013-03-28 02:25:00,
2013-03-27 22:35:00,45.8,27.2,30.19,North,350,8.0,11.0,48,0.00,,,0.00,Wunderground v.1.15,2013-03-28 02:35:00,
2013-03-27 22:40:00,45.7,27.1,30.19,North,352,7.0,11.0,48,0.00,,,0.00,Wunderground v.1.15,2013-03-28 02:40:00,
2013-03-27 22:45:00,45.6,27.5,30.19,NNW,336,7.0,11.0,49,0.00,,,0.00,Wunderground v.1.15,2013-03-28 02:45:00,
2013-03-27 22:50:00,45.5,26.9,30.19,NNE,23,7.0,7.0,48,0.00,,,0.00,Wunderground v.1.15,2013-03-28 02:50:00,
2013-03-27 22:55:00,45.2,27.2,30.20,NNW,333,6.0,8.0,49,0.00,,,0.00,Wunderground v.1.15,2013-03-28 02:55:00,
2013-03-27 23:00:00,45.0,27.0,30.19,NNW,344,6.0,6.0,49,0.00,,,0.00,Wunderground v.1.15,2013-03-28 03:00:00,
2013-03-27 23:05:00,44.8,27.3,30.19,NNW,338,6.0,13.0,50,0.00,,,0.00,Wunderground v.1.15,2013-03-28 03:05:00,
2013-03-27 23:10:00,44.6,27.1,30.19,NNW,339,6.0,13.0,50,0.00,,,0.00,Wunderground v.1.15,2013-03-28 03:10:00,
2013-03-27 23:15:00,44.5,27.0,30.19,NW,323,5.0,13.0,50,0.00,,,0.00,Wunderground v.1.15,2013-03-28 03:15:00,
2013-03-27 23:20:00,44.3,27.8,30.19,North,1,6.0,13.0,52,0.00,,,0.00,Wunderground v.1.15,2013-03-28 03:20:00,
2013-03-27 23:25:00,44.0,27.5,30.19,NW,317,6.0,13.0,52,0.00,,,0.00,Wunderground v.1.15,2013-03-28 03:25:00,
2013-03-27 23:30:00,43.9,27.4,30.19,NW,309,6.0,6.0,52,0.00,,,0.00,Wunderground v.1.15,2013-03-28 03:30:00,
2013-03-27 23:35:00,43.6,27.6,30.19,NW,326,6.0,7.0,53,0.00,,,0.00,Wunderground v.1.15,2013-03-28 03:35:00,
2013-03-27 23:40:00,43.3,27.8,30.19,NNE,30,5.0,13.0,54,0.00,,,0.00,Wunderground v.1.15,2013-03-28 03:40:00,
2013-03-27 23:45:00,43.1,27.6,30.19,NNE,13,4.0,13.0,54,0.00,,,0.00,Wunderground v.1.15,2013-03-28 03:45:00,
2013-03-27 23:50:00,42.8,27.3,30.19,North,6,5.0,13.0,54,0.00,,,0.00,Wunderground v.1.15,2013-03-28 03:50:00,
2013-03-27 23:55:00,42.6,27.5,30.19,NNW,338,5.0,13.0,55,0.00,,,0.00,Wunderground v.1.15,2013-03-28 03:55:00,